Weather in Ukrainka

Ukraine / Kyiv Region     50°08′59″N   30°44′52″E
temp.,
°C
wind,
m/s
gust,
m/s
humid.,
%
clouds,
%
prec.,
mm/h
press.,
hPa
HPBL,
m
18 september, sat
sat1800:00+19s41075100 0.0 1007384
03:00+17sse51093100 1.1 1006412
06:00+17sse51193100 0.3 1004434
09:00+18s6108682 0.7 1004648
12:00+19sw71077100 0.1 10041044
15:00+15w688061 0.1 1005571
18:00+19w465998 0.0 10051313
21:00+17w5865100 0.0 1007709
19 september, sun
sun1900:00+14wnw477468 0.0 1008545
03:00+10w369393 0.0 1008131
06:00+12w2579100 0.0 1008248
09:00+13sw2372100 0.0 1008272
12:00+16sw5664100 0.4 1008950
15:00+13wnw5578100 0.9 1008542
18:00+10w4786100 1.3 1009428
21:00+8w3685100 1.4 1009490
20 september, mon
mon2000:00+8w4685100 0.0 1009469
03:00+8w4790100 0.4 1009512
06:00+8w4788100 0.1 1008618
09:00+7w4687100 0.1 1009629
12:00+8w5781100 0.0 1009687
15:00+11w687299 0.1 10091001
18:00+9wnw6987100 0.1 1010828
21:00+8wnw61189100 0.3 1011687
21 september, tue
tue2100:00+8wnw61188100 0.1 1012724
03:00+7w61088100 0.1 1013663
06:00+6w61086100 0.0 1014596
09:00+6w6985100 0.1 1015643
12:00+6w6988100 0.1 1016895
15:00+6wnw6992100 0.5 1017950
18:00+6wnw61192100 0.2 10171014
21:00+6wnw71189100 0.3 10181130
22 september, wed
wed2200:00+6wnw71185100 0.1 1019968
03:00+6wnw61086100 0.1 10181070
06:00+6wnw5986100 0.1 10191008
09:00+7wnw5883100 0.2 1019891
12:00+7wnw5785100 0.1 1019963
15:00+7nw5883100 0.2 1018894
18:00+8wnw4876100 0.1 1018977
21:00+8nw5879100 0.2 1017988